Temperature
14 14 15 15 15 15 15 15 15 15 16 16 16 16 15 15 15 14 14 14 14 14 14 15 15 15 15 15 15 15 15 15 15 15 15 15 15 15
15 14 15 15 15 15 15 15 15 15 15 15 15 15 15 15 15 14 14 14 14 14 14 14 14 14 14 14 14 14 14 14 15 15 15 15 15 15
15 15 15 15 15 15 15 15 14 14 14 15 15 15 15 15 15 14 14 14 13 14 14 14 14 14 14 14 14 14 14 14 14 14 14 14 14 15
16 15 15 15 16 16 15 15 15 14 14 15 15 15 14 14 14 14 14 13 13 13 13 14 14 14 14 14 14 14 14 14 14 14 14 14 14 14
16 16 16 16 16 16 16 16 15 15 15 14 15 14 14 14 14 14 14 14 13 13 13 14 14 14 14 14 14 14 14 14 14 14 14 14 14 14
16 16 16 16 16 16 16 16 15 15 15 14 14 14 14 14 14 14 14 14 13 13 13 14 14 14 13 13 13 13 14 14 14 14 14 14 14 14
16 16 16 16 16 15 15 15 15 14 14 14 14 14 14 14 14 14 14 14 14 14 14 14 13 14 13 13 13 13 13 13 13 13 13 13 13 13
16 16 16 16 16 15 15 15 15 14 14 14 14 14 14 14 14 14 14 14 14 14 13 13 13 13 13 13 13 13 13 13 13 13 13 13 13 13
15 15 15 15 15 15 15 15 15 15 14 14 14 14 14 14 14 14 14 13 13 13 13 13 13 13 13 13 13 13 13 13 13 13 13 13 13 13
15 14 14 14 14 14 14 14 14 14 14 14 14 14 15 15 14 14 13 13 13 13 13 13 13 13 13 13 13 13 13 13 13 13 12 12 12 12
14 13 13 13 13 13 13 13 13 13 13 13 13 13 14 14 13 13 12 12 12 12 13 12 13 13 13 13 13 13 13 13 13 12 12 12 12 12
12 12 12 12 12 12 12 12 12 13 13 13 13 13 13 13 13 12 12 11 11 11 12 12 13 13 12 13 13 13 13 12 12 12 12 12 12 12
11 11 11 11 11 12 12 12 12 12 12 12 12 12 12 12 12 12 12 12 11 11 12 12 12 13 13 13 13 13 12 12 12 12 12 12 12 12
10 10 10 10 10 11 11 11 11 11 11 11 11 11 11 11 12 12 12 12 12 12 12 12 12 12 12 12 12 12 12 12 12 12 12 12 12 12
9 9 9 9 9 10 10 10 10 10 10 10 10 10 10 11 11 11 11 11 12 12 12 12 12 12 12 11 12 12 12 12 12 12 12 12 12 11
8 8 9 9 9 9 9 9 10 10 10 10 10 10 10 10 10 11 11 11 11 11 11 11 11 11 11 11 11 11 11 11 11 11 12 11 11 11
7 7 7 7 7 8 8 9 9 9 9 9 10 10 10 10 10 10 10 11 11 11 11 11 11 11 11 11 10 10 10 11 11 11 11 11 11 11
6 6 6 6 6 7 7 8 8 8 8 9 9 9 9 9 9 10 10 10 10 10 10 11 11 10 10 10 10 10 10 10 10 11 11 11 11 11
6 6 6 6 6 6 6 6 6 7 7 7 8 8 8 9 9 9 9 9 9 10 10 10 10 10 10 10 10 11 10 10 10 10 10 10 11 11
5 5 5 5 5 5 5 5 5 5 6 6 7 7 7 7 8 8 9 9 9 9 9 10 10 10 10 10 10 10 10 10 10 10 10 10 10 11
4 4 4 4 4 4 4 4 4 4 5 5 5 6 6 7 7 7 8 8 8 9 9 9 9 10 10 10 9 10 10 10 10 10 10 10 10 10
3 3 3 3 3 3 3 3 3 4 4 4 5 5 6 6 6 7 7 7 8 8 8 9 9 9 9 9 9 9 10 10 10 10 10 10 10 10
2 2 2 2 2 2 2 3 3 3 3 4 4 5 5 5 6 6 7 7 7 8 8 8 8 9 9 9 9 9 9 9 10 10 10 10 10 10
Wind_Speed
4 5 4 4 3 3 2 2 2 4 4 1 1 3 6 8 13 10 8 12 13 13 12 12 12 11 11 12 12 13 13 14 16 16 17 18 19 20
4 3 3 4 3 3 3 3 3 3 4 3 2 2 3 4 11 9 8 10 16 17 17 17 17 16 15 15 15 15 15 15 15 16 16 17 18 19
6 6 6 6 5 4 3 3 4 4 5 5 4 3 2 3 4 7 9 11 13 20 23 23 21 20 19 18 18 17 17 17 17 17 17 17 18 18
8 8 7 7 8 6 5 5 5 5 5 6 5 4 5 6 6 6 9 13 14 16 21 24 24 23 22 21 20 20 20 19 19 19 19 19 18 18
9 9 9 9 8 7 7 7 6 7 6 6 7 6 6 6 6 7 8 7 13 16 17 22 26 26 24 24 23 23 22 22 22 21 21 20 20 19
9 9 9 10 10 9 9 8 8 7 7 7 7 6 6 7 6 6 6 6 8 12 13 14 21 27 28 27 27 26 25 24 24 23 22 21 21 21
10 10 11 12 14 12 11 9 9 9 8 8 8 8 8 6 6 6 7 7 7 7 6 7 8 11 17 24 27 28 27 27 26 25 24 23 22 22
10 10 11 13 15 17 18 16 13 11 10 9 9 9 8 8 6 6 6 6 6 5 6 7 6 7 7 14 20 27 30 29 28 26 25 25 24 23
8 8 11 14 12 11 14 18 19 20 18 13 13 13 10 8 7 8 7 8 8 5 4 6 6 7 5 14 18 21 26 28 28 28 27 26 26 25
9 9 10 11 14 12 11 12 13 15 17 17 16 17 16 11 10 9 9 9 8 7 8 9 8 8 9 10 17 19 22 25 27 28 28 27 27 26
9 10 10 10 12 13 12 13 13 12 16 20 20 20 23 22 15 9 9 9 12 10 9 11 10 9 9 9 13 20 23 25 27 28 28 27 27 24
7 8 10 8 9 9 8 11 13 13 13 14 13 16 17 18 20 16 13 13 12 10 9 10 9 8 9 8 7 9 13 20 26 27 27 27 25 15
7 7 7 8 9 11 10 10 14 14 12 12 12 12 11 12 14 15 15 15 16 14 10 9 9 8 8 7 6 7 6 6 10 15 23 27 26 18
8 8 8 14 16 16 14 15 18 16 12 12 13 12 12 12 12 14 15 15 16 18 13 10 8 8 8 8 6 6 7 7 8 9 8 17 23 26
8 12 15 18 18 16 18 19 16 12 12 13 14 13 12 12 12 11 13 15 17 19 20 15 14 11 10 10 9 7 7 6 7 8 8 8 8 8
10 13 17 19 17 17 17 15 12 12 12 13 13 12 11 11 11 11 11 11 13 14 15 17 14 15 14 13 10 9 8 7 7 8 8 7 7 6
11 12 12 12 11 10 10 9 9 9 10 10 12 12 12 11 12 11 10 11 12 13 12 12 13 13 15 13 12 11 10 9 8 8 8 8 8 8
10 11 12 11 12 12 12 11 10 10 10 10 10 10 11 12 12 11 11 11 12 12 12 10 10 10 11 12 16 14 11 10 9 9 8 9 9 8
9 10 10 10 11 11 11 12 12 11 11 11 11 11 11 11 11 11 11 11 12 12 11 10 10 11 13 14 11 17 15 12 10 9 9 9 9 8
9 9 9 10 10 11 11 12 12 12 12 12 13 12 12 12 12 12 11 11 11 11 10 10 10 11 13 12 9 8 16 15 11 11 10 9 8 10
10 10 10 11 11 12 12 12 12 13 13 13 13 13 12 11 12 11 11 13 12 10 11 10 10 12 9 7 9 9 8 15 15 12 11 9 8 8
10 11 11 11 11 11 11 12 12 12 13 12 12 12 11 11 12 12 11 10 9 10 11 9 8 8 8 10 12 11 10 9 13 18 17 13 9 9
11 11 11 11 11 10 11 12 14 12 12 12 12 12 12 11 10 10 10 9 8 9 9 8 7 7 8 9 10 10 12 11 9 8 10 16 19 19
Wind_Direction
236 214 232 274 249 265 294 302 301 308 313 258 200 182 172 164 171 195 205 211 216 222 229 235 241 246 250 254 256 256 255 255 255 254 253 251 249 248
244 263 241 277 290 257 243 262 270 274 284 310 280 232 191 210 183 209 236 232 224 229 233 235 237 240 244 248 251 253 254 254 255 254 253 253 254 253
233 232 225 242 273 295 276 244 238 242 258 273 276 276 200 217 200 226 253 250 237 236 236 235 234 236 240 243 245 248 250 251 252 252 252 253 254 254
229 234 231 230 222 237 260 270 259 248 248 266 274 276 257 226 217 221 245 259 258 254 241 233 232 233 236 239 242 244 247 248 250 251 251 252 253 254
230 230 232 234 234 230 229 241 250 253 232 240 251 245 244 235 228 230 237 243 258 266 251 233 231 232 234 237 240 242 244 246 247 248 249 251 252 253
236 235 234 231 232 232 238 237 243 254 258 254 254 250 245 235 219 221 239 235 244 255 255 236 227 230 233 236 239 242 243 244 245 246 247 248 249 251
236 237 241 240 237 236 240 236 233 236 242 245 247 247 244 235 226 219 233 237 237 236 242 240 221 221 229 236 240 243 243 242 242 242 244 245 247 248
240 242 247 248 246 240 239 241 241 243 246 248 251 249 246 239 235 234 237 242 252 240 237 244 231 227 221 225 230 232 236 237 237 238 240 242 243 245
261 260 263 263 260 249 242 239 242 242 240 245 256 258 260 258 253 248 244 245 249 248 266 265 253 248 240 253 251 238 231 231 232 233 235 238 240 243
269 268 267 269 272 273 270 260 248 244 241 242 246 252 255 258 258 257 256 259 254 245 239 254 253 251 254 250 253 245 233 229 229 231 233 236 239 242
276 276 276 275 279 283 279 274 270 262 252 243 234 237 239 243 245 254 252 252 256 249 228 237 242 241 240 239 241 240 232 228 228 229 232 235 238 241
298 294 289 299 313 318 298 287 279 273 273 272 258 248 246 246 238 236 243 248 253 254 237 235 239 236 244 236 230 231 229 232 231 231 233 236 237 234
310 307 305 332 331 319 304 287 279 283 283 274 270 263 251 244 239 234 231 236 243 246 241 235 240 236 238 238 227 224 214 215 222 231 236 238 236 224
312 308 317 329 321 309 297 279 274 277 277 272 267 263 258 253 245 238 232 229 232 240 244 245 249 244 245 248 243 232 227 222 221 221 215 226 231 229
305 314 321 314 307 296 281 276 276 274 270 267 265 263 259 257 255 251 244 239 237 237 240 239 244 249 248 249 249 242 240 236 228 228 226 220 215 210
321 318 310 294 286 277 277 277 268 261 260 264 266 266 263 260 258 255 254 248 246 244 236 232 232 234 241 242 243 246 243 242 238 234 231 231 225 212
316 306 299 298 296 294 293 291 288 284 274 270 271 271 268 264 262 261 259 256 253 250 245 234 230 230 234 235 240 241 242 243 241 237 238 241 237 232
305 298 298 300 302 304 306 307 304 299 297 296 291 284 280 275 271 267 264 260 257 254 249 242 235 236 239 240 232 240 242 243 242 238 236 242 245 237
294 297 303 309 311 313 315 314 314 314 311 305 299 294 289 282 275 269 265 262 261 258 253 246 239 233 238 244 232 217 229 236 236 238 238 238 243 240
313 315 316 317 318 318 317 316 316 315 313 309 304 299 295 290 284 276 269 264 261 259 259 252 241 233 234 242 246 236 217 228 236 239 242 241 242 243
322 323 322 322 322 320 318 316 314 312 309 308 305 301 297 295 290 284 277 271 266 262 258 256 250 238 236 240 250 250 239 223 224 230 231 236 242 245
324 323 322 319 318 317 315 313 312 310 310 309 306 304 299 295 293 289 283 277 271 265 260 256 254 248 237 237 242 246 247 244 233 232 238 235 233 238
324 321 319 318 316 315 315 314 312 310 311 314 313 310 305 300 298 295 289 282 275 271 269 266 259 250 242 238 241 244 246 247 245 239 241 239 236 241
Height
1559 1560 1560 1561 1562 1562 1563 1564 1565 1564 1563 1563 1563 1563 1563 1562 1562 1562 1561 1561 1560 1560 1560 1561 1561 1561 1562 1563 1563 1564 1565 1565 1566 1567 1568 1569 1570 1572
1557 1558 1558 1559 1560 1561 1561 1561 1561 1562 1561 1561 1561 1561 1560 1560 1559 1558 1558 1557 1556 1556 1556 1556 1556 1556 1556 1557 1557 1558 1559 1559 1560 1561 1562 1563 1564 1565
1555 1556 1556 1556 1556 1557 1558 1558 1558 1558 1558 1557 1557 1558 1557 1556 1556 1555 1554 1552 1551 1551 1551 1551 1551 1551 1551 1551 1551 1551 1552 1553 1553 1554 1555 1556 1557 1558
1552 1553 1553 1553 1553 1554 1554 1554 1554 1555 1554 1553 1553 1553 1552 1551 1551 1550 1549 1548 1547 1547 1546 1546 1546 1545 1545 1545 1545 1545 1545 1546 1546 1547 1548 1549 1550 1550
1549 1549 1550 1550 1550 1550 1550 1549 1550 1550 1550 1549 1547 1548 1547 1547 1546 1544 1544 1543 1542 1541 1541 1540 1540 1540 1539 1539 1539 1538 1538 1539 1539 1540 1540 1541 1542 1543
1545 1545 1545 1545 1545 1545 1545 1545 1545 1544 1544 1544 1542 1542 1541 1541 1541 1539 1538 1537 1537 1536 1536 1535 1534 1534 1533 1533 1533 1532 1532 1532 1532 1533 1533 1534 1534 1535
1540 1540 1540 1540 1540 1540 1540 1539 1539 1539 1538 1537 1536 1536 1535 1535 1535 1534 1533 1532 1531 1531 1530 1530 1529 1527 1527 1527 1526 1526 1526 1525 1525 1526 1526 1526 1527 1527
1535 1535 1535 1534 1534 1534 1533 1533 1534 1533 1532 1531 1530 1529 1528 1529 1529 1528 1527 1526 1525 1525 1525 1523 1523 1521 1521 1520 1520 1519 1519 1519 1519 1519 1519 1519 1519 1519
1529 1529 1528 1528 1528 1527 1525 1525 1525 1525 1524 1524 1522 1521 1521 1522 1522 1521 1520 1519 1517 1517 1518 1515 1515 1514 1514 1514 1514 1513 1512 1512 1512 1512 1512 1511 1511 1511
1522 1522 1521 1520 1520 1520 1518 1517 1515 1515 1514 1514 1512 1511 1512 1513 1513 1513 1512 1510 1509 1508 1509 1507 1505 1505 1505 1505 1506 1505 1505 1505 1505 1504 1504 1504 1503 1502
1515 1514 1513 1512 1512 1511 1509 1507 1506 1505 1505 1504 1502 1501 1502 1502 1503 1503 1502 1501 1498 1498 1499 1498 1496 1496 1496 1496 1497 1497 1497 1497 1497 1496 1496 1496 1495 1494
1508 1507 1506 1505 1504 1502 1500 1498 1496 1495 1495 1494 1493 1491 1491 1491 1492 1492 1491 1490 1488 1488 1489 1490 1488 1489 1487 1487 1488 1488 1488 1488 1488 1488 1488 1488 1488 1487
1501 1500 1499 1498 1495 1494 1492 1489 1487 1486 1484 1482 1481 1480 1479 1479 1478 1479 1478 1478 1477 1476 1478 1481 1480 1480 1480 1478 1479 1480 1480 1480 1480 1480 1480 1480 1480 1479
1495 1494 1492 1490 1487 1485 1482 1480 1479 1476 1473 1471 1469 1467 1467 1467 1466 1467 1466 1466 1465 1465 1468 1470 1470 1470 1470 1470 1470 1470 1471 1472 1472 1472 1471 1471 1472 1471
1490 1487 1484 1482 1479 1475 1473 1471 1469 1466 1463 1460 1458 1456 1456 1456 1456 1456 1455 1455 1454 1454 1455 1457 1458 1459 1460 1460 1460 1461 1462 1462 1463 1463 1463 1463 1463 1463
1483 1479 1476 1473 1470 1467 1464 1461 1459 1457 1454 1451 1449 1447 1446 1445 1445 1444 1444 1443 1442 1441 1443 1444 1446 1448 1448 1448 1450 1450 1452 1452 1453 1454 1455 1454 1455 1454
1476 1472 1468 1465 1462 1460 1457 1455 1452 1450 1447 1444 1441 1439 1437 1435 1434 1434 1433 1433 1432 1431 1431 1433 1434 1436 1436 1438 1438 1439 1441 1442 1443 1445 1445 1445 1445 1445
1471 1466 1463 1460 1457 1454 1451 1448 1445 1443 1440 1437 1433 1430 1428 1426 1424 1423 1423 1422 1421 1420 1421 1422 1424 1425 1426 1425 1428 1428 1430 1431 1433 1435 1436 1435 1434 1435
1466 1462 1459 1456 1453 1449 1446 1442 1439 1435 1432 1429 1425 1422 1420 1417 1415 1413 1412 1411 1410 1410 1410 1411 1413 1414 1415 1414 1414 1418 1419 1420 1423 1424 1426 1426 1425 1426
1463 1459 1455 1452 1448 1444 1441 1437 1432 1428 1425 1421 1418 1414 1412 1409 1406 1404 1403 1402 1401 1400 1400 1401 1401 1403 1404 1405 1407 1408 1411 1411 1413 1414 1416 1417 1417 1418
1458 1455 1451 1447 1443 1439 1435 1431 1426 1422 1418 1414 1410 1406 1403 1401 1398 1395 1394 1393 1392 1391 1391 1391 1392 1394 1395 1397 1398 1398 1401 1403 1404 1405 1406 1408 1408 1409
1453 1450 1446 1442 1438 1433 1429 1424 1420 1415 1411 1407 1403 1399 1396 1393 1390 1388 1386 1384 1384 1383 1383 1383 1384 1386 1387 1388 1388 1389 1391 1393 1395 1396 1398 1399 1399 1399
1449 1445 1440 1436 1432 1428 1423 1419 1414 1409 1405 1401 1396 1392 1389 1386 1383 1381 1379 1377 1376 1376 1376 1376 1377 1378 1378 1379 1380 1382 1383 1384 1385 1387 1387 1388 1390 1391